Location: Kapuskasing
(49.3803°N, 82.4001°W)
Time: 14:58:44
(UTC-05:00)

RS-44 - Pass Details

Date: 19 December 2025
Orbit: 1174 x 1511 km, 82.5° (Epoch: 21 January)

Event Time Altitude Azimuth Distance (km) Brightness Sun altitude
Exits shadow 01:51:25 11° 11° (N) 3,488 ? -59.2°
Drops below altitude 10° 01:51:40 10° 11° (N) 3,572 ? -59.1°
Sets 01:54:28 0° 11° (NNE) 4,516 ? -58.9°
